AB8YS Weather Reports


Display with metric or nautical units.
time (UTC)temp
F
wind
direction
speed
MPH
gust
MPH
rain 1hr
in
rain 24hr
in
rain mn
in
humidity
%
barometer
mb
20260508121609 51 236 0.0 1.0 0.00 0.00 0.00 67 1014.4
20260508120057 50 258 0.0 1.0 0.00 0.00 0.00 68 1014.3
20260508114556 50 255 0.0 1.0 0.00 0.00 0.00 67 1014.2
20260508113053 49 276 0.0 1.0 0.00 0.00 0.00 69 1014.0
20260508111550 48 245 0.0 1.0 0.00 0.00 0.00 70 1014.0
20260508110053 47 252 0.0 1.0 0.00 0.00 0.00 71 1013.8
20260508104546 47 255 0.0 1.0 0.00 0.00 0.00 73 1013.6
20260508103046 47 255 0.0 1.0 0.00 0.00 0.00 73 1013.6
20260508101545 46 254 0.0 1.0 0.00 0.00 0.00 74 1013.8
20260508100044 46 238 0.0 1.0 0.00 0.00 0.00 74 1013.8
20260508094554 45 240 0.0 1.0 0.00 0.00 0.00 75 1013.8
20260508093043 46 262 0.0 1.0 0.00 0.00 0.00 74 1014.0
20260508091543 46 263 0.0 0.0 0.00 0.00 0.00 74 1013.9
20260508090042 45 265 0.0 0.0 0.00 0.00 0.00 77 1013.9
20260508084542 44 265 0.0 1.0 0.00 0.00 0.00 77 1013.9
20260508083116 44 266 0.0 0.0 0.00 0.00 0.00 78 1014.0
20260508081542 45 266 0.0 0.0 0.00 0.00 0.00 76 1013.9
20260508080041 45 266 0.0 1.0 0.00 0.00 0.00 75 1013.8
20260508074537 46 252 0.0 0.0 0.00 0.00 0.00 73 1013.8
20260508073036 46 252 0.0 0.0 0.00 0.00 0.00 72 1013.9
20260508071536 46 252 0.0 0.0 0.00 0.00 0.00 72 1014.0
20260508070031 46 252 0.0 1.0 0.00 0.00 0.00 71 1013.9
20260508064544 46 231 0.0 1.0 0.00 0.00 0.00 71 1014.2
20260508063027 46 235 0.0 1.0 0.00 0.00 0.00 71 1014.4
20260508061526 47 232 0.0 1.0 0.00 0.00 0.00 69 1014.4
20260508060025 47 232 0.0 1.0 0.00 0.00 0.00 69 1014.3
20260508054524 47 269 0.0 0.0 0.00 0.00 0.00 69 1014.5
20260508053025 47 244 0.0 1.0 0.00 0.00 0.00 72 1014.5
20260508051524 47 250 0.0 1.0 0.00 0.00 0.00 70 1014.5
20260508050025 46 275 0.0 1.0 0.00 0.00 0.00 71 1014.5
20260508044521 46 276 0.0 0.0 0.00 0.00 0.00 71 1014.5
20260508043019 46 276 0.0 0.0 0.00 0.00 0.00 70 1014.4
20260508041518 46 276 0.0 0.0 0.00 0.00 0.00 72 1014.4
20260508040015 46 276 0.0 0.0 0.00 0.00 0.00 72 1014.3
20260508034514 47 276 0.0 0.0 0.00 0.00 0.00 70 1014.3
20260508033017 47 276 0.0 0.0 0.00 0.00 0.00 69 1014.3
20260508031513 47 276 0.0 0.0 0.00 0.00 0.00 71 1014.4
20260508030012 46 276 0.0 0.0 0.00 0.00 0.00 71 1014.3
20260508024522 46 276 0.0 0.0 0.00 0.00 0.00 74 1014.3
20260508023011 47 276 0.0 0.0 0.00 0.00 0.00 78 1014.3
20260508021512 47 276 0.0 0.0 0.00 0.00 0.00 73 1014.0
20260508020015 48 276 0.0 0.0 0.00 0.00 0.00 72 1014.2
20260508014510 48 276 0.0 0.0 0.00 0.00 0.00 70 1014.2
20260508013009 49 276 0.0 0.0 0.00 0.00 0.00 68 1014.3
20260508011508 50 276 0.0 0.0 0.00 0.00 0.00 65 1014.1
20260508010009 51 276 0.0 0.0 0.00 0.00 0.00 61 1014.1
20260508004507 52 276 0.0 0.0 0.00 0.00 0.00 57 1014.1
20260508003007 53 276 0.0 0.0 0.00 0.00 0.00 53 1014.0
20260508001507 54 276 0.0 0.0 0.00 0.00 0.00 54 1013.9
20260508000006 55 276 0.0 0.0 0.00 0.00 0.00 51 1013.8
20260507234506 55 276 0.0 1.0 0.00 0.00 0.00 52 1013.6
20260507233005 56 276 0.0 0.0 0.00 0.00 0.00 52 1013.7
20260507231507 56 276 0.0 1.0 0.00 0.00 0.00 47 1013.7
20260507230005 56 287 0.0 1.0 0.00 0.00 0.00 52 1013.7
20260507224511 57 301 0.0 1.0 0.00 0.00 0.00 45 1013.5
20260507223002 57 39 0.0 5.0 0.00 0.00 0.00 47 1013.6
20260507221501 57 284 0.0 1.0 0.00 0.00 0.00 42 1013.9
20260507220001 57 26 0.0 3.0 0.00 0.00 0.00 47 1014.0
20260507214612 57 23 0.0 3.0 0.00 0.00 0.00 44 1014.0
20260507213109 57 49 0.0 1.0 0.00 0.00 0.00 47 1014.1
20260507211559 57 311 0.0 1.0 0.00 0.00 0.00 45 1014.0
20260507210059 57 264 0.0 2.0 0.00 0.00 0.00 45 1013.9
20260507204611 58 265 0.0 2.0 0.00 0.00 0.00 44 1013.9
20260507203058 58 274 0.0 1.0 0.00 0.00 0.00 45 1013.8
20260507201557 58 350 0.0 3.0 0.00 0.00 0.00 47 1013.8
20260507200056 58 266 0.0 2.0 0.00 0.00 0.00 41 1013.9
20260507194555 58 271 0.0 2.0 0.00 0.00 0.00 43 1014.1
20260507193107 58 302 0.0 5.0 0.00 0.00 0.00 47 1014.0
20260507191553 58 288 0.0 2.0 0.00 0.00 0.00 46 1014.1
20260507184552 59 37 1.0 5.0 0.00 0.00 0.00 47 1014.1
20260507183056 59 286 0.0 2.0 0.00 0.00 0.00 45 1014.5
20260507181548 58 286 0.0 3.0 0.00 0.00 0.00 44 1014.5
20260507180051 58 297 0.0 2.0 0.00 0.00 0.00 45 1014.6
20260507174547 58 265 0.0 2.0 0.00 0.00 0.00 46 1014.6
20260507173053 58 266 0.0 2.0 0.00 0.00 0.00 47 1014.8
20260507171546 57 307 0.0 3.0 0.00 0.00 0.00 45 1015.0
20260507170044 57 266 0.0 2.0 0.00 0.00 0.00 47 1015.2
20260507164541 57 295 0.0 2.0 0.00 0.00 0.00 48 1015.3
20260507163040 56 274 0.0 2.0 0.00 0.00 0.00 47 1015.4
20260507161540 56 274 0.0 2.0 0.00 0.00 0.00 48 1015.4
20260507160039 55 264 0.0 2.0 0.00 0.00 0.00 47 1015.4
20260507154540 56 273 0.0 2.0 0.00 0.00 0.00 48 1015.4
20260507153038 55 290 0.0 2.0 0.00 0.00 0.00 50 1015.4
20260507151530 55 269 0.0 1.0 0.00 0.00 0.00 49 1015.3
20260507150029 54 282 0.0 0.0 0.00 0.00 0.00 47 1015.2
20260507144525 54 262 0.0 1.0 0.00 0.00 0.00 53 1015.3
20260507143023 53 284 0.0 2.0 0.00 0.00 0.00 51 1015.2
20260507141521 53 294 0.0 2.0 0.00 0.00 0.00 52 1015.3
20260507140021 53 275 0.0 1.0 0.00 0.00 0.00 55 1015.3
20260507134521 52 314 0.0 1.0 0.00 0.00 0.00 56 1015.3
20260507133018 52 297 0.0 1.0 0.00 0.00 0.00 56 1015.3
20260507131513 51 281 0.0 2.0 0.00 0.00 0.00 59 1015.4
20260507130011 51 302 0.0 1.0 0.00 0.00 0.00 61 1015.5
20260507124510 50 293 0.0 0.0 0.00 0.00 0.00 66 1015.5
20260507123007 49 293 0.0 1.0 0.00 0.00 0.00 69 1015.5